Stations météo

Publicité
Leucate/Semaphore, France (7666): Température de l'air & dewpoint: 18.03.2019 00:00:00 - 24.03.2019 00:00:00 (CET)Leucate/Semaphore, France (7666): Vitesse du vent & gusts: 18.03.2019 00:00:00 - 24.03.2019 00:00:00 (CET)Leucate/Semaphore, France (7666): Direction du vent: 18.03.2019 00:00:00 - 24.03.2019 00:00:00 (CET)Leucate/Semaphore, France (7666): reduced air pressure: 18.03.2019 00:00:00 - 24.03.2019 00:00:00 (CET)Leucate/Semaphore, France (7666): visibility: 18.03.2019 00:00:00 - 24.03.2019 00:00:00 (CET)Leucate/Semaphore, France (7666): Quantités de précipitations: 18.03.2019 00:00:00 - 24.03.2019 00:00:00 (CET)
Date & Time tt [°C] td [°C] ff [km/h] ff [knt] fx [km/h] fx [knt] dd ppp [hPa] vv [km] rr [mm]
24.03.2019 00:00:00 - - - - - - - - - -
23.03.2019 23:00:00 16,9 1,3 13 7 21 12 NW 1023,1 - 0,0
23.03.2019 22:00:00 17,7 1,2 15 8 29 16 WNW 1022,8 - 0,0
23.03.2019 21:00:00 19,0 1,5 15 8 31 17 WNW 1022,7 - 0,0
23.03.2019 20:00:00 20,2 1,6 16 9 32 17 NW 1022,1 - 0,0
23.03.2019 19:00:00 21,7 -0,4 18 10 37 20 WNW 1021,7 20 0,0
23.03.2019 18:00:00 24,2 -0,2 16 9 37 20 WNW 1021,6 - 0,0
23.03.2019 17:00:00 20,6 6,5 13 7 17 9 S 1021,8 - 0,0
23.03.2019 16:00:00 20,1 7,8 8 5 15 8 S 1022,3 - 0,0
23.03.2019 15:00:00 21,0 7,9 5 3 16 9 SE 1022,6 - 0,0
23.03.2019 14:00:00 21,7 5,1 5 3 14 8 NNE 1023,5 - 0,0
23.03.2019 13:00:00 24,1 2,8 11 6 29 15 NNW 1024,4 - 0,0
23.03.2019 12:00:00 23,5 3,4 15 8 29 16 NNW 1024,9 - 0,0
23.03.2019 11:00:00 22,3 3,4 14 8 31 17 NNW 1025,3 - 0,0
23.03.2019 10:00:00 19,9 4,0 14 8 28 15 NW 1025,8 20 0,0
23.03.2019 09:00:00 14,8 8,5 9 5 16 9 S 1025,7 - 0,0
23.03.2019 08:00:00 13,6 8,0 3 2 9 5 S 1025,9 - 0,0
23.03.2019 07:00:00 12,3 6,1 6 3 11 6 SE 1025,7 20 0,0
23.03.2019 06:00:00 12,7 3,4 5 3 9 5 SSE 1025,3 - 0,0
23.03.2019 05:00:00 12,8 5,7 5 3 11 6 ESE 1025,3 - 0,0
23.03.2019 04:00:00 11,5 0,6 11 6 14 7 WNW 1025,6 - 0,0
23.03.2019 03:00:00 12,0 0,1 3 2 14 8 W 1026,0 - 0,0
23.03.2019 02:00:00 11,4 -0,8 9 5 11 6 WNW 1026,2 - 0,0
23.03.2019 01:00:00 10,6 2,4 7 4 13 7 N 1026,4 - 0,0
23.03.2019 00:00:00 12,0 4,0 2 1 12 6 SSW 1026,5 - 0,0
22.03.2019 23:00:00 12,3 1,0 10 5 18 10 NW 1026,5 - 0,0
22.03.2019 22:00:00 13,3 3,6 16 9 23 12 SW 1026,5 - 0,0
22.03.2019 21:00:00 13,8 3,8 18 10 20 11 SW 1026,2 - 0,0
22.03.2019 20:00:00 14,3 3,1 15 8 16 9 WSW 1025,9 - 0,0
22.03.2019 19:00:00 15,1 2,6 9 5 11 6 SW 1026,0 18 0,0
22.03.2019 18:00:00 15,5 4,5 4 2 8 4 S 1026,0 - 0,0
22.03.2019 17:00:00 16,2 2,2 5 3 8 4 ESE 1026,1 - 0,0
22.03.2019 16:00:00 15,9 3,3 4 2 10 5 SE 1026,5 - 0,0
22.03.2019 15:00:00 15,4 5,3 7 4 11 6 SSE 1027,2 - 0,0
22.03.2019 14:00:00 15,1 6,4 6 3 11 6 S 1027,8 - 0,0
22.03.2019 13:00:00 14,7 5,5 6 3 10 5 SSE 1028,7 - 0,0
22.03.2019 12:00:00 14,6 6,2 6 3 9 5 SE 1029,2 - 0,0
22.03.2019 11:00:00 13,8 2,7 4 2 8 5 ESE 1029,1 - 0,0
22.03.2019 10:00:00 13,2 4,3 5 3 11 6 ESE 1029,0 20 0,0
22.03.2019 09:00:00 14,0 1,9 3 2 13 7 N 1028,9 - 0,0
22.03.2019 08:00:00 10,5 0,2 10 5 17 9 WNW 1028,5 - 0,0
22.03.2019 07:00:00 9,5 -1,0 13 7 18 10 NNW 1028,2 20 0,0
22.03.2019 06:00:00 9,0 -0,3 12 7 20 11 NNW 1027,8 - 0,0
22.03.2019 05:00:00 8,5 -0,3 14 8 20 11 NNW 1027,7 - 0,0
22.03.2019 04:00:00 8,7 3,5 13 7 18 10 N 1027,9 - 0,0
22.03.2019 03:00:00 8,7 0,6 11 6 19 10 N 1027,8 - 0,0
22.03.2019 02:00:00 8,9 3,3 13 7 17 9 NNW 1028,0 - 0,0
22.03.2019 01:00:00 9,8 2,4 8 4 11 6 N 1028,0 - 0,0
22.03.2019 00:00:00 10,5 1,3 5 3 9 5 N 1027,9 - 0,0
21.03.2019 23:00:00 10,6 2,2 3 2 11 6 SSW 1027,8 - 0,0
21.03.2019 22:00:00 11,5 -0,3 9 5 15 8 SW 1027,8 - 0,0
21.03.2019 21:00:00 11,2 0,9 15 8 23 12 WSW 1027,5 - 0,0
21.03.2019 20:00:00 11,4 2,1 18 10 21 11 WSW 1027,1 - 0,0
21.03.2019 19:00:00 11,8 3,5 12 7 16 9 SW 1027,0 - 0,0
21.03.2019 18:00:00 12,4 4,1 10 6 16 9 S 1026,9 - 0,0
21.03.2019 17:00:00 12,7 3,9 12 7 20 11 S 1027,0 - 0,0
21.03.2019 16:00:00 13,4 4,0 14 8 21 11 S 1027,4 - 0,0
21.03.2019 15:00:00 13,0 2,8 17 9 28 15 SSE 1027,9 - 0,0
21.03.2019 14:00:00 12,7 1,4 22 12 35 19 ESE 1028,1 - 0,0
21.03.2019 13:00:00 13,3 0,0 22 12 34 19 E 1028,4 - 0,0
21.03.2019 12:00:00 14,6 0,4 6 4 22 12 N 1029,0 - 0,0
21.03.2019 11:00:00 13,6 -0,1 10 5 21 12 N 1029,3 - 0,0
21.03.2019 10:00:00 12,6 1,0 14 8 32 17 N 1029,5 - 0,0
21.03.2019 09:00:00 11,1 -0,1 18 10 31 17 N 1029,2 - 0,0
21.03.2019 08:00:00 9,7 -2,0 15 8 29 16 NW 1028,9 - 0,0
21.03.2019 07:00:00 8,1 -2,6 16 9 26 14 NW 1028,5 25 0,0
21.03.2019 06:00:00 8,5 -2,5 14 8 23 12 NW 1028,0 - 0,0
21.03.2019 05:00:00 8,4 -2,3 14 7 25 13 NW 1028,0 - 0,0
21.03.2019 04:00:00 8,6 -2,1 13 7 27 14 NW 1028,0 20 0,0
21.03.2019 03:00:00 9,1 -1,9 16 8 30 16 NW 1028,3 - 0,0
21.03.2019 02:00:00 9,4 -2,3 18 10 32 17 NW 1028,7 - 0,0
21.03.2019 01:00:00 10,2 -1,5 17 9 37 20 NW 1028,8 - 0,0
21.03.2019 00:00:00 10,9 -1,9 18 10 36 20 NW 1029,0 - 0,0
20.03.2019 23:00:00 11,1 -2,0 19 11 38 21 NW 1028,9 - 0,0
20.03.2019 22:00:00 11,9 -2,4 27 14 61 33 NW 1028,6 - 0,0
20.03.2019 21:00:00 12,2 -2,8 29 16 51 27 NW 1028,3 - 0,0
20.03.2019 20:00:00 12,4 -2,3 21 11 49 26 NW 1028,0 - 0,0
20.03.2019 19:00:00 13,2 -4,0 28 15 58 31 WNW 1027,2 25 0,0
20.03.2019 18:00:00 14,5 -2,9 29 16 56 30 NW 1027,0 - 0,0
20.03.2019 17:00:00 15,6 -2,4 29 15 56 30 WNW 1026,7 - 0,0
20.03.2019 16:00:00 16,2 -2,8 22 12 51 28 NW 1027,0 - 0,0
20.03.2019 15:00:00 15,8 -3,7 23 13 47 25 NW 1027,5 - 0,0
20.03.2019 14:00:00 15,6 -3,9 17 9 40 21 NW 1028,2 - 0,0
20.03.2019 13:00:00 15,1 -4,3 16 9 36 19 NW 1029,0 - 0,0
20.03.2019 12:00:00 14,2 -3,2 20 11 39 21 NW 1029,4 - 0,0
20.03.2019 11:00:00 13,3 -2,3 22 12 41 22 NW 1029,5 - 0,0
20.03.2019 10:00:00 11,8 -1,4 19 11 45 24 NW 1029,7 30 0,0
20.03.2019 09:00:00 10,0 -0,5 23 12 43 23 NW 1029,3 - 0,0
20.03.2019 08:00:00 8,2 0,4 21 11 45 25 NW 1029,0 - 0,0
20.03.2019 07:00:00 7,1 -0,1 21 11 38 21 NW 1028,4 30 0,0
20.03.2019 06:00:00 6,9 0,1 18 10 37 20 NW 1028,1 - 0,0
20.03.2019 05:00:00 7,2 0,6 21 11 41 22 NW 1027,9 - 0,0
20.03.2019 04:00:00 7,7 1,1 21 12 41 22 NW 1027,7 30 0,0
20.03.2019 03:00:00 8,0 1,4 23 12 41 22 NW 1027,9 - 0,0
20.03.2019 02:00:00 8,5 1,4 23 13 47 26 NW 1028,0 - 0,0
20.03.2019 01:00:00 8,9 1,8 24 13 51 27 NW 1027,7 - 0,0
20.03.2019 00:00:00 9,1 1,7 24 13 50 27 NW 1027,7 - 0,0
19.03.2019 23:00:00 9,3 2,2 24 13 51 27 NW 1027,4 - 0,0
19.03.2019 22:00:00 9,7 2,1 26 14 55 30 NW 1026,9 - 0,0
19.03.2019 21:00:00 10,2 1,8 29 16 63 34 NW 1026,2 - 0,0
19.03.2019 20:00:00 10,2 1,6 34 19 64 34 WNW 1025,7 - 0,0
19.03.2019 19:00:00 10,6 1,7 34 18 61 33 NW 1025,1 - 0,0
19.03.2019 18:00:00 12,0 1,9 34 19 67 36 NW 1024,3 - 0,0
19.03.2019 17:00:00 13,3 1,6 30 16 65 35 NW 1023,9 - 0,0
19.03.2019 16:00:00 14,2 1,8 34 19 61 33 NW 1023,4 - 0,0
19.03.2019 15:00:00 14,5 1,7 28 15 54 29 NW 1023,5 - 0,0
19.03.2019 14:00:00 13,6 0,9 29 16 57 31 NW 1023,9 - 0,0
19.03.2019 13:00:00 13,0 1,6 29 16 64 35 NW 1024,4 25 0,0
19.03.2019 12:00:00 12,8 2,6 31 17 63 34 NW 1024,5 - 0,0
19.03.2019 11:00:00 11,2 2,5 31 17 60 32 NW 1024,2 - 0,0
19.03.2019 10:00:00 9,7 2,8 31 17 63 34 NW 1023,8 30 0,0
19.03.2019 09:00:00 9,6 2,7 29 16 61 33 NW 1023,7 - 0,0
19.03.2019 08:00:00 8,0 2,4 30 16 58 31 NW 1023,1 - 0,0
19.03.2019 07:00:00 7,1 2,2 29 16 66 36 NW 1022,8 16 0,0
19.03.2019 06:00:00 7,3 2,0 31 17 57 31 NW 1022,1 - 0,0
19.03.2019 05:00:00 7,5 1,6 30 16 55 30 NW 1022,1 - 0,0
19.03.2019 04:00:00 7,9 1,9 26 14 50 27 NW 1022,6 - 0,0
19.03.2019 03:00:00 8,5 1,9 22 12 45 25 NW 1023,1 - 0,0
19.03.2019 02:00:00 9,0 1,6 16 9 48 26 NW 1023,9 - 0,0
19.03.2019 01:00:00 9,5 2,1 22 12 46 25 NW 1024,0 - 0,0
19.03.2019 00:00:00 9,7 2,5 23 12 42 23 NW 1024,1 - 0,0
18.03.2019 23:00:00 10,4 1,7 21 12 54 29 NW 1024,2 - 0,0
18.03.2019 22:00:00 11,5 0,3 23 13 44 24 NW 1023,8 - 0,0
18.03.2019 21:00:00 11,6 -0,3 19 10 41 22 NW 1023,5 - 0,0
18.03.2019 20:00:00 11,7 -1,1 14 8 48 26 NW 1023,6 - 0,0
18.03.2019 19:00:00 12,2 -1,0 18 10 48 26 NW 1023,3 20 0,0
18.03.2019 18:00:00 13,5 -1,3 27 14 66 35 NW 1022,8 - 0,0
18.03.2019 17:00:00 13,8 -1,8 32 18 67 36 NW 1022,5 - 0,0
18.03.2019 16:00:00 14,0 -2,5 36 20 75 41 NW 1022,3 20 0,0
18.03.2019 15:00:00 13,7 -1,1 38 20 71 39 NW 1022,2 - 0,0
18.03.2019 14:00:00 13,3 0,0 36 19 84 45 NW 1022,8 - 0,0
18.03.2019 13:00:00 13,2 -0,5 43 23 82 44 NW 1023,1 - 0,0
18.03.2019 12:00:00 12,9 0,3 30 16 74 40 NW 1023,6 - 0,0
18.03.2019 11:00:00 11,7 0,4 32 17 74 40 NW 1023,8 - 0,0
18.03.2019 10:00:00 9,8 1,7 31 17 70 38 NW 1023,4 20 0,0
18.03.2019 09:00:00 8,6 1,9 34 19 65 35 NW 1023,1 - 0,0
18.03.2019 08:00:00 8,1 1,7 22 12 51 28 NW 1023,3 - 0,0
18.03.2019 07:00:00 8,1 1,7 27 14 56 31 NW 1022,9 16 0,0
18.03.2019 06:00:00 8,3 1,9 27 14 51 28 NW 1022,2 - 0,0
18.03.2019 05:00:00 7,6 2,5 19 10 51 28 WNW 1022,0 - 0,0
18.03.2019 04:00:00 8,4 1,8 24 13 57 31 NW 1021,8 16 0,0
18.03.2019 03:00:00 8,7 1,4 29 16 64 35 WNW 1022,0 - 0,0
18.03.2019 02:00:00 8,6 1,0 30 16 69 38 NW 1022,5 - 0,0
18.03.2019 01:00:00 8,9 1,1 37 20 77 41 NW 1021,9 - 0,0
18.03.2019 00:00:00 9,6 0,2 42 23 82 44 NW 1020,7 - 0,0

tt = Température de l'air
td = dewpoint
ff = Vitesse du vent
fx = gusts
dd = Direction du vent
ppp = reduced air pressure
vv = visibility
rr = Quantités de précipitations

stations d'obs. à proximité